Stanley, ND

3:08 AM CST on January 22, 2017 (GMT -0600)
Stanley

Weather History for K08D - April, 2013

Change the Weather History Date:

Friday, April 19, 2013

  Actual Average (KMIB) Record (KMIB)
Temperature  
Mean Temperature 27 °F -  
Max Temperature 35 °F 55 °F 72 °F (2008)
Min Temperature 19 °F 30 °F 17 °F (2013)
Degree Days  
Heating Degree Days 38    
Moisture  
Dew Point 18 °F    
Average Humidity 68    
Maximum Humidity 93    
Minimum Humidity 41    
Precipitation  
Precipitation 0.00 in - - ()
Sea Level Pressure  
Sea Level Pressure 30.02 in    
Wind  
Wind Speed 3 mph (East)    
Max Wind Speed 12 mph    
Max Gust Speed -    
Visibility 10 miles    
Events      
Averages and records for this station are not official NWS values.
T = Trace of Precipitation, MM = Missing Value Source: NWS Daily Summary

Daily Weather History Graph

Daily Weather History Graph

Search for Another Location

Airport or City:

Trip Planner

Search our weather history database for the weather conditions in past years. The results will help you decide how hot, cold, wet, or windy it might be!

Date:

Astronomy

Apr. 19, 2013 Rise Set
Actual Time 6:51 AM CDT 8:46 PM CDT
Civil Twilight 6:18 AM CDT 9:20 PM CDT
Nautical Twilight 5:37 AM CDT 10:01 PM CDT
Astronomical Twilight 4:51 AM CDT 10:47 PM CDT
Moon 2:05 PM CDT (4/19) 3:37 AM CDT (4/19)
Length of Visible Light 15h 02m
Length of Day
13h 55m
First Quarter, 62% of the Moon is Illuminated
Apr 19
First Quarter
Apr 25
Full
May 2
Last Quarter
May 9
New
May 17
First Quarter

Hourly Weather History & Observations

Time (CDT) Temp. Windchill Dew Point Humidity Pressure Visibility Wind Dir Wind Speed Gust Speed Precip Events Conditions
12:15 AM 26.6 °F - 24.8 °F 93% 30.00 in 10.0 mi Calm Calm - N/A   Overcast
12:35 AM 26.6 °F - 24.8 °F 93% 29.99 in 10.0 mi Calm Calm - N/A   Overcast
12:55 AM 26.6 °F - 24.8 °F 93% 29.99 in 10.0 mi Calm Calm - N/A   Overcast
1:15 AM 26.6 °F 22.6 °F 24.8 °F 93% 29.99 in 10.0 mi NE 3.5 mph - N/A   Overcast
1:35 AM 26.6 °F - 24.8 °F 93% 29.99 in 10.0 mi Calm Calm - N/A   Overcast
1:55 AM 26.6 °F - 24.8 °F 93% 29.99 in 10.0 mi Calm Calm - N/A   Overcast
2:15 AM 26.6 °F - 24.8 °F 93% 29.98 in 10.0 mi Calm Calm - N/A   Overcast
2:35 AM 26.6 °F 21.2 °F 23.0 °F 86% 29.98 in 10.0 mi North 4.6 mph - N/A   Overcast
2:55 AM 26.6 °F - 23.0 °F 86% 29.97 in 10.0 mi Calm Calm - N/A   Overcast
3:15 AM 24.8 °F - 23.0 °F 93% 29.97 in 10.0 mi Calm Calm - N/A   Overcast
3:35 AM 24.8 °F - 23.0 °F 93% 29.97 in 10.0 mi Calm Calm - N/A   Overcast
3:55 AM 24.8 °F - 21.2 °F 86% 29.98 in 10.0 mi Calm Calm - N/A   Overcast
4:15 AM 24.8 °F 20.5 °F 19.4 °F 80% 29.97 in 10.0 mi NE 3.5 mph - N/A   Overcast
4:35 AM 24.8 °F 17.9 °F 19.4 °F 80% 29.97 in 10.0 mi North 5.8 mph - N/A   Overcast
4:55 AM 23.0 °F 17.0 °F 17.6 °F 80% 29.98 in 10.0 mi NNE 4.6 mph - N/A   Overcast
5:15 AM 24.8 °F 19.1 °F 19.4 °F 80% 29.99 in 10.0 mi NNE 4.6 mph - N/A   Overcast
5:35 AM 23.0 °F 18.4 °F 17.6 °F 80% 30.00 in 10.0 mi NNE 3.5 mph - N/A   Overcast
5:55 AM 23.0 °F 18.4 °F 17.6 °F 80% 30.00 in 10.0 mi North 3.5 mph - N/A   Overcast
6:15 AM 19.4 °F 12.8 °F 15.8 °F 86% 30.00 in 10.0 mi NNE 4.6 mph - N/A   Mostly Cloudy
6:35 AM 19.4 °F 12.8 °F 15.8 °F 86% 30.01 in 10.0 mi NNE 4.6 mph - N/A   Scattered Clouds
6:55 AM 19.4 °F 12.8 °F 15.8 °F 86% 30.01 in 10.0 mi NNE 4.6 mph - N/A   Clear
7:15 AM 19.4 °F 11.5 °F 15.8 °F 86% 30.02 in 10.0 mi NNE 5.8 mph - N/A   Clear
7:35 AM 19.4 °F 12.8 °F 15.8 °F 86% 30.02 in 10.0 mi NNE 4.6 mph - N/A   Clear
7:55 AM 21.2 °F 14.9 °F 17.6 °F 86% 30.02 in 10.0 mi North 4.6 mph - N/A   Clear
8:15 AM 23.0 °F - 17.6 °F 80% 30.03 in 10.0 mi Calm Calm - N/A   Clear
8:35 AM 24.8 °F 20.5 °F 17.6 °F 74% 30.03 in 10.0 mi North 3.5 mph - N/A   Clear
8:55 AM 26.6 °F - 17.6 °F 69% 30.03 in 10.0 mi Calm Calm - N/A   Clear
9:15 AM 26.6 °F - 17.6 °F 69% 30.03 in 10.0 mi Calm Calm - N/A   Clear
9:35 AM 28.4 °F 22.2 °F 15.8 °F 59% 30.03 in 10.0 mi East 5.8 mph - N/A   Clear
9:55 AM 28.4 °F 24.6 °F 15.8 °F 59% 30.04 in 10.0 mi NE 3.5 mph - N/A   Clear
10:35 AM 32.0 °F 28.7 °F 15.8 °F 51% 30.04 in 10.0 mi NE 3.5 mph - N/A   Clear
10:55 AM 32.0 °F 28.7 °F 17.6 °F 55% 30.04 in 10.0 mi ENE 3.5 mph - N/A   Clear
11:15 AM 32.0 °F 26.4 °F 15.8 °F 51% 30.04 in 10.0 mi NE 5.8 mph - N/A   Clear
11:35 AM 32.0 °F 26.4 °F 14.0 °F 48% 30.04 in 10.0 mi ENE 5.8 mph - N/A   Clear
11:55 AM 32.0 °F 25.6 °F 14.0 °F 48% 30.05 in 10.0 mi NE 6.9 mph - N/A   Clear
12:15 PM 32.0 °F 25.6 °F 14.0 °F 48% 30.05 in 10.0 mi East 6.9 mph - N/A   Clear
12:35 PM 32.0 °F 24.8 °F 14.0 °F 48% 30.05 in 10.0 mi ESE 8.1 mph - N/A   Clear
12:55 PM 32.0 °F 25.6 °F 14.0 °F 48% 30.05 in 10.0 mi ESE 6.9 mph - N/A   Clear
1:15 PM 32.0 °F 25.6 °F 14.0 °F 48% 30.05 in 10.0 mi East 6.9 mph - N/A   Clear
1:35 PM 32.0 °F 24.8 °F 14.0 °F 48% 30.05 in 10.0 mi SE 8.1 mph - N/A   Clear
1:55 PM 33.8 °F 30.8 °F 14.0 °F 44% 30.04 in 10.0 mi ENE 3.5 mph - N/A   Clear
2:15 PM 33.8 °F 29.6 °F 14.0 °F 44% 30.04 in 10.0 mi ESE 4.6 mph - N/A   Clear
2:35 PM 33.8 °F - 12.2 °F 41% 30.04 in 10.0 mi Calm Calm - N/A   Clear
2:55 PM 33.8 °F 28.6 °F 15.8 °F 48% 30.03 in 10.0 mi SE 5.8 mph - N/A   Partly Cloudy
3:15 PM 33.8 °F 27.7 °F 15.8 °F 48% 30.04 in 10.0 mi SSE 6.9 mph - N/A   Partly Cloudy
3:35 PM 33.8 °F - 15.8 °F 48% 30.04 in 10.0 mi Calm Calm - N/A   Partly Cloudy
3:55 PM 33.8 °F 30.8 °F 14.0 °F 44% 30.03 in 10.0 mi SE 3.5 mph - N/A   Clear
4:15 PM 35.6 °F 31.7 °F 15.8 °F 44% 30.03 in 10.0 mi SE 4.6 mph - N/A   Clear
4:35 PM 33.8 °F 27.7 °F 15.8 °F 48% 30.03 in 10.0 mi SSE 6.9 mph - N/A   Partly Cloudy
4:55 PM 33.8 °F 29.6 °F 15.8 °F 48% 30.03 in 10.0 mi SE 4.6 mph - N/A   Partly Cloudy
5:15 PM 33.8 °F 27.7 °F 15.8 °F 48% 30.03 in 10.0 mi SE 6.9 mph - N/A   Clear
5:35 PM 33.8 °F 29.6 °F 15.8 °F 48% 30.03 in 10.0 mi SSE 4.6 mph - N/A   Clear
5:55 PM 33.8 °F 27.7 °F 15.8 °F 48% 30.03 in 10.0 mi SSE 6.9 mph - N/A   Clear
6:15 PM 33.8 °F 27.0 °F 15.8 °F 48% 30.03 in 10.0 mi SE 8.1 mph - N/A   Clear
6:35 PM 33.8 °F 26.4 °F 15.8 °F 48% 30.03 in 10.0 mi SE 9.2 mph - N/A   Clear
6:55 PM 32.0 °F 24.8 °F 15.8 °F 51% 30.03 in 10.0 mi SE 8.1 mph - N/A   Clear
7:15 PM 32.0 °F 24.2 °F 17.6 °F 55% 30.03 in 10.0 mi ESE 9.2 mph - N/A   Clear
7:35 PM 32.0 °F 23.0 °F 17.6 °F 55% 30.03 in 10.0 mi ESE 11.5 mph - N/A   Clear
7:55 PM 32.0 °F 24.2 °F 19.4 °F 60% 30.03 in 10.0 mi ESE 9.2 mph - N/A   Clear
8:15 PM 30.2 °F 24.3 °F 21.2 °F 69% 30.03 in 10.0 mi ESE 5.8 mph - N/A   Clear
8:35 PM 28.4 °F 21.2 °F 19.4 °F 69% 30.03 in 10.0 mi ESE 6.9 mph - N/A   Clear
8:55 PM 28.4 °F 21.2 °F 21.2 °F 74% 30.02 in 10.0 mi ESE 6.9 mph - N/A   Clear
9:15 PM 26.6 °F 20.0 °F 19.4 °F 74% 30.03 in 10.0 mi ESE 5.8 mph - N/A   Clear
9:35 PM 26.6 °F 19.1 °F 19.4 °F 74% 30.03 in 10.0 mi ESE 6.9 mph - N/A   Clear
9:55 PM 26.6 °F 18.2 °F 19.4 °F 74% 30.03 in 10.0 mi SE 8.1 mph - N/A   Clear
10:15 PM 24.8 °F 16.1 °F 19.4 °F 80% 30.03 in 10.0 mi ESE 8.1 mph - N/A   Clear
10:35 PM 24.8 °F 16.1 °F 19.4 °F 80% 30.03 in 10.0 mi ESE 8.1 mph - N/A   Clear
10:55 PM 24.8 °F 16.1 °F 19.4 °F 80% 30.03 in 10.0 mi ESE 8.1 mph - N/A   Clear
11:15 PM 24.8 °F 16.9 °F 19.4 °F 80% 30.03 in 10.0 mi SE 6.9 mph - N/A   Clear
11:35 PM 24.8 °F 17.9 °F 19.4 °F 80% 30.02 in 10.0 mi ESE 5.8 mph - N/A   Clear
11:55 PM 23.0 °F 17.0 °F 19.4 °F 86% 30.03 in 10.0 mi SE 4.6 mph - N/A   Clear